Location: Capel Gartheli
(52.1833°N, 4.0667°W)
Time: 21:28:39
(UTC+00:00)

NOSS 3-4 (C) - Pass Details

Date: 18 February 2020
Orbit: 900 x 1313 km, 63.4° (Epoch: 26 March)

Event Time Altitude Azimuth Distance (km) Brightness Sun altitude
Exits shadow 06:29:36 - 313° (NW) 3,313 5.8 -9.4°
Reaches altitude 10° 06:30:57 10° 315° (NW) 2,841 5.5 -9.2°
Maximum altitude 06:37:39 63° 36° (NE) 1,231 4.2 -8.2°
Drops below altitude 10° 06:45:05 10° 118° (ESE) 3,132 7.6 -7.0°
Sets 06:48:00 0° 121° (ESE) 4,148 8.3 -6.6°
